N738BJ KTTD-KPDX

Flight info

Callsign N738BJ
Flight time 0h -1m
Altitude VFR
Route +FF
Aircraft C172/L-DOV/C

Departure

Time 2026-05-04 04:56
Airport Portland Troutdale Airport (KTTD)

Arrival

Time 2026-05-04 04:54
Airport Portland International Airport (KPDX)
Time Latitude Longitude Altitude Speed Heading
2026-05-04 04:54 45.55017 -122.39236 57 ft 0 kts 175°
2026-05-04 04:54 45.55014 -122.39236 57 ft 3 kts 178°
2026-05-04 04:55 45.54958 -122.39250 57 ft 7 kts 240°
2026-05-04 04:55 45.54945 -122.39543 55 ft 54 kts 268°
2026-05-04 04:55 45.54935 -122.40286 137 ft 75 kts 270°
2026-05-04 04:55 45.54933 -122.41079 287 ft 79 kts 276°
2026-05-04 04:56 45.55071 -122.41903 457 ft 80 kts 300°
2026-05-04 04:56 45.55407 -122.42560 643 ft 79 kts 313°
2026-05-04 04:56 45.55752 -122.43196 805 ft 80 kts 310°
2026-05-04 04:56 45.56140 -122.43784 963 ft 76 kts 11°
2026-05-04 04:57 45.56298 -122.43127 1152 ft 79 kts 131°
2026-05-04 04:57 45.55746 -122.43153 1256 ft 88 kts 247°
2026-05-04 04:57 45.56043 -122.43669 1354 ft 75 kts 29°
2026-05-04 04:57 45.56158 -122.42954 1402 ft 77 kts 122°
2026-05-04 04:58 45.55592 -122.42744 1425 ft 81 kts 189°
2026-05-04 04:58 45.55011 -122.42966 1415 ft 81 kts 206°
2026-05-04 04:58 45.54610 -122.43555 1393 ft 80 kts 262°
2026-05-04 04:58 45.54496 -122.44378 1378 ft 81 kts 259°
2026-05-04 04:59 45.54255 -122.45189 1366 ft 81 kts 256°
2026-05-04 04:59 45.54137 -122.46020 1350 ft 79 kts 288°
2026-05-04 04:59 45.54369 -122.46747 1347 ft 75 kts 309°
2026-05-04 04:59 45.54634 -122.47448 1358 ft 75 kts 299°
2026-05-04 05:00 45.54856 -122.48190 1324 ft 75 kts 301°
2026-05-04 05:00 45.55150 -122.48843 1250 ft 67 kts 311°
2026-05-04 05:00 45.55670 -122.50091 1036 ft 71 kts 308°
2026-05-04 05:01 45.55958 -122.50771 975 ft 72 kts 302°
2026-05-04 05:01 45.56253 -122.51447 902 ft 72 kts 310°
2026-05-04 05:01 45.56547 -122.52064 861 ft 64 kts 299°
2026-05-04 05:01 45.56776 -122.52678 801 ft 62 kts 298°
2026-05-04 05:02 45.57011 -122.53265 747 ft 63 kts 304°
2026-05-04 05:02 45.57242 -122.53867 656 ft 64 kts 297°
2026-05-04 05:02 45.57474 -122.54455 582 ft 62 kts 304°
2026-05-04 05:02 45.57716 -122.55057 427 ft 64 kts 299°
2026-05-04 05:03 45.57961 -122.55673 302 ft 65 kts 297°
2026-05-04 05:03 45.58199 -122.56271 185 ft 61 kts 299°
2026-05-04 05:04 45.58771 -122.57752 29 ft 71 kts 298°
2026-05-04 05:04 45.59052 -122.58427 223 ft 71 kts 299°
2026-05-04 05:04 45.59316 -122.59124 419 ft 70 kts 306°
2026-05-04 05:06 45.59909 -122.56851 929 ft 103 kts 120°
2026-05-04 05:06 45.59537 -122.55916 909 ft 92 kts 118°
2026-05-04 05:06 45.59230 -122.55112 800 ft 78 kts 114°
2026-05-04 05:07 45.58963 -122.54400 657 ft 75 kts 127°
2026-05-04 05:07 45.58487 -122.54062 512 ft 71 kts 187°
2026-05-04 05:07 45.58031 -122.54345 421 ft 68 kts 210°
2026-05-04 05:09 45.59162 -122.58767 372 ft 67 kts 300°
2026-05-04 05:09 45.59435 -122.59424 531 ft 71 kts 306°
2026-05-04 05:10 45.59695 -122.60019 727 ft 71 kts 303°
2026-05-04 05:10 45.60155 -122.60232 892 ft 72 kts 24°
2026-05-04 05:10 45.60610 -122.59741 1004 ft 83 kts 58°
2026-05-04 05:10 45.60480 -122.58806 1065 ft 101 kts 116°
2026-05-04 05:11 45.60112 -122.57819 1175 ft 103 kts 115°
2026-05-04 05:11 45.59779 -122.56865 1233 ft 100 kts 112°
2026-05-04 05:11 45.59453 -122.55893 1173 ft 96 kts 113°
2026-05-04 05:11 45.59159 -122.55029 1014 ft 81 kts 116°
2026-05-04 05:12 45.58685 -122.54536 824 ft 81 kts 167°
2026-05-04 05:12 45.58124 -122.54542 635 ft 74 kts 198°
2026-05-04 05:12 45.57741 -122.55000 486 ft 66 kts 265°
2026-05-04 05:12 45.57931 -122.55624 298 ft 63 kts 301°
2026-05-04 05:13 45.58161 -122.56200 181 ft 59 kts 300°
2026-05-04 05:13 45.58379 -122.56739 93 ft 56 kts 297°
2026-05-04 05:13 45.58556 -122.57187 29 ft 35 kts 297°
2026-05-04 05:13 45.58749 -122.57686 33 ft 71 kts 296°
2026-05-04 05:14 45.59005 -122.58349 253 ft 67 kts 303°
2026-05-04 05:14 45.59265 -122.58984 423 ft 71 kts 295°
2026-05-04 05:14 45.59552 -122.59623 609 ft 71 kts 308°
2026-05-04 05:14 45.59912 -122.60155 757 ft 76 kts 346°
2026-05-04 05:15 45.60475 -122.60089 986 ft 69 kts 10°
2026-05-04 05:15 45.60718 -122.59391 1052 ft 91 kts 102°
2026-05-04 05:15 45.60474 -122.58452 1150 ft 98 kts 110°
2026-05-04 05:15 45.60184 -122.57466 1221 ft 106 kts 109°
2026-05-04 05:16 45.59868 -122.56417 1261 ft 107 kts 109°
2026-05-04 05:16 45.59558 -122.55423 1247 ft 91 kts 111°
2026-05-04 05:16 45.59270 -122.54597 1128 ft 84 kts 114°
2026-05-04 05:16 45.58889 -122.53906 928 ft 91 kts 159°
2026-05-04 05:17 45.58271 -122.54002 795 ft 84 kts 202°
2026-05-04 05:17 45.57762 -122.54366 694 ft 68 kts 233°
2026-05-04 05:17 45.57673 -122.55024 510 ft 63 kts 295°
2026-05-04 05:17 45.57942 -122.55631 322 ft 66 kts 298°
2026-05-04 05:18 45.58172 -122.56231 185 ft 59 kts 301°
2026-05-04 05:18 45.58402 -122.56796 81 ft 61 kts 299°
2026-05-04 05:18 45.58594 -122.57292 29 ft 38 kts 302°
2026-05-04 05:18 45.58740 -122.57672 29 ft 59 kts 301°
2026-05-04 05:19 45.58999 -122.58353 151 ft 73 kts 297°
2026-05-04 05:19 45.59282 -122.59051 327 ft 75 kts 304°
2026-05-04 05:19 45.59582 -122.59731 523 ft 74 kts 302°
2026-05-04 05:19 45.59865 -122.60391 738 ft 70 kts 306°
2026-05-04 05:20 45.60166 -122.61031 917 ft 73 kts 305°
2026-05-04 05:20 45.60416 -122.61776 1096 ft 77 kts 294°
2026-05-04 05:20 45.60595 -122.62553 1273 ft 78 kts 291°
2026-05-04 05:20 45.60732 -122.63360 1405 ft 86 kts 281°
2026-05-04 05:21 45.60395 -122.64177 1540 ft 98 kts 214°
2026-05-04 05:21 45.59785 -122.64671 1732 ft 95 kts 209°
2026-05-04 05:21 45.59167 -122.65098 1898 ft 96 kts 204°
2026-05-04 05:21 45.58536 -122.65479 2076 ft 96 kts 203°
2026-05-04 05:22 45.57838 -122.65823 2212 ft 101 kts 197°
2026-05-04 05:22 45.57155 -122.66264 2374 ft 100 kts 211°
2026-05-04 05:22 45.56521 -122.66808 2465 ft 109 kts 212°
2026-05-04 05:22 45.55814 -122.67410 2535 ft 117 kts 212°
2026-05-04 05:23 45.55090 -122.68024 2634 ft 117 kts 211°
2026-05-04 05:23 45.54353 -122.68687 2663 ft 123 kts 214°
2026-05-04 05:23 45.53558 -122.69384 2702 ft 127 kts 210°
2026-05-04 05:23 45.52765 -122.70019 2770 ft 128 kts 212°
2026-05-04 05:24 45.51910 -122.70734 2767 ft 131 kts 211°
2026-05-04 05:24 45.51128 -122.71561 2737 ft 135 kts 228°
2026-05-04 05:24 45.50567 -122.72633 2869 ft 126 kts 239°
2026-05-04 05:24 45.50130 -122.73754 2986 ft 117 kts 256°
2026-05-04 05:25 45.50151 -122.74986 2957 ft 114 kts 292°
2026-05-04 05:25 45.50413 -122.76112 2936 ft 118 kts 293°
2026-05-04 05:25 45.50710 -122.77296 2925 ft 114 kts 303°
2026-05-04 05:25 45.50960 -122.78419 2777 ft 118 kts 288°
2026-05-04 05:26 45.51065 -122.79563 2750 ft 109 kts 284°
2026-05-04 05:26 45.51153 -122.80694 2611 ft 113 kts 285°
2026-05-04 05:26 45.51265 -122.81804 2541 ft 109 kts 285°
2026-05-04 05:26 45.51426 -122.82927 2340 ft 112 kts 298°
2026-05-04 05:27 45.51768 -122.83917 2268 ft 102 kts 304°
2026-05-04 05:28 45.53643 -122.89822 1488 ft 93 kts 308°
2026-05-04 05:29 45.54026 -122.90559 1417 ft 91 kts 315°
2026-05-04 05:29 45.54465 -122.91255 1249 ft 98 kts 320°
2026-05-04 05:29 45.54992 -122.91840 1262 ft 93 kts 323°
2026-05-04 05:29 45.55441 -122.92484 1314 ft 92 kts 316°
2026-05-04 05:31 45.55407 -122.96294 521 ft 77 kts 164°
2026-05-04 05:31 45.54917 -122.95903 289 ft 72 kts 146°
2026-05-04 05:32 45.54549 -122.95523 205 ft 49 kts 146°
2026-05-04 05:32 45.54323 -122.95290 206 ft 30 kts 144°
2026-05-04 05:32 45.54180 -122.95129 206 ft 20 kts 158°
2026-05-04 05:33 45.53945 -122.94983 205 ft 13 kts 174°
2026-05-04 05:33 45.53896 -122.95033 205 ft 4 kts 278°
2026-05-04 05:33 45.53889 -122.95091 205 ft 4 kts 236°
2026-05-04 05:33 45.53871 -122.95120 205 ft 2 kts 235°
2026-05-04 05:34 45.53870 -122.95123 205 ft 0 kts 236°